GW0944 Weather Reports


time (UTC)temp
F
wind
direction
speed
knots
gust
knots
rain 1hr
in
rain 24hr
in
rain mn
in
humidity
%
barometer
mb
20260506103131 57 296 0.0 0.9 0.00 0.00 0.00 78 1009.2
20260506102630 57 180 1.7 1.7 0.00 0.00 0.00 79 1008.8
20260506102127 57 50 0.9 1.7 0.00 0.00 0.00 80 1008.9
20260506101623 57 17 3.5 4.3 0.00 0.00 0.00 79 1008.7
20260506101120 57 344 0.9 1.7 0.00 0.00 0.00 79 1008.7
20260506100619 57 286 0.9 1.7 0.00 0.00 0.00 79 1008.6
20260506100116 57 332 0.9 0.9 0.00 0.00 0.00 79 1008.5
20260506095615 57 257 0.9 1.7 0.00 0.00 0.00 78 1008.3
20260506095111 57 320 3.5 5.2 0.00 0.00 0.00 79 1008.4
20260506094609 57 68 0.0 0.9 0.00 0.00 0.00 80 1008.2
20260506094106 57 41 0.9 0.9 0.00 0.00 0.00 81 1008.4
20260506093604 57 350 1.7 2.6 0.00 0.00 0.00 83 1008.2
20260506093101 58 20 1.7 1.7 0.00 0.00 0.00 81 1008.2
20260506092559 58 32 0.9 0.9 0.00 0.00 0.00 81 1007.9
20260506092056 57 357 0.9 1.7 0.00 0.00 0.00 80 1007.9
20260506091554 57 60 0.9 1.7 0.00 0.00 0.00 80 1008.0
20260506091051 58 350 1.7 1.7 0.00 0.00 0.00 80 1008.3
20260506090549 58 61 0.9 0.9 0.00 0.00 0.00 79 1008.1
20260506090045 58 251 1.7 1.7 0.00 0.00 0.00 80 1008.1
20260506085542 58 52 0.9 1.7 0.00 0.00 0.00 80 1007.9
20260506085038 57 301 0.9 1.7 0.00 0.00 0.00 81 1008.0
20260506084536 57 133 0.9 1.7 0.00 0.00 0.00 84 1007.9
20260506084031 58 115 0.9 0.9 0.00 0.00 0.00 83 1007.8
20260506083529 58 96 0.9 0.9 0.00 0.00 0.00 81 1007.8
20260506083026 58 60 4.3 6.1 0.00 0.00 0.00 81 1007.9
20260506082523 58 318 0.9 1.7 0.00 0.00 0.00 80 1007.8
20260506082019 58 264 0.9 1.7 0.00 0.00 0.00 80 1007.7
20260506081517 58 47 0.9 0.9 0.00 0.00 0.00 81 1007.8
20260506081014 58 187 0.9 1.7 0.00 0.00 0.00 81 1007.8
20260506080512 59 323 0.9 0.9 0.00 0.00 0.00 82 1007.7
20260506073455 58 51 1.7 1.7 0.00 0.00 0.00 81 1006.8
20260506072952 58 3 0.9 0.9 0.00 0.00 0.00 81 1007.0
20260506072449 58 4 0.9 1.7 0.00 0.00 0.00 80 1007.2
20260506071947 59 358 0.9 1.7 0.00 0.00 0.00 81 1007.3
20260506071445 59 356 0.9 0.9 0.00 0.00 0.00 80 1007.3
20260506070941 59 116 1.7 2.6 0.00 0.00 0.00 80 1007.4
20260506070438 59 138 0.9 1.7 0.00 0.00 0.00 81 1007.5
20260506062416 60 76 0.9 1.7 0.00 0.00 0.00 80 1007.1
20260506061912 60 51 0.0 0.9 0.00 0.00 0.00 82 1007.4
20260506061409 60 112 2.6 2.6 0.00 0.00 0.00 81 1007.2
20260506060907 60 52 1.7 4.3 0.00 0.00 0.00 81 1006.9
20260506060404 60 88 2.6 2.6 0.00 0.00 0.00 81 1007.3
20260506051336 62 36 0.9 1.7 0.00 0.00 0.00 80 1007.4
20260506050834 62 85 0.9 1.7 0.00 0.00 0.00 81 1007.3
20260506050331 62 12 0.9 2.6 0.00 0.00 0.00 81 1007.2
20260506044821 63 130 0.9 0.9 0.00 0.00 0.00 81 1007.1
20260506044319 63 48 1.7 2.6 0.00 0.00 0.00 80 1007.1
20260506043816 63 143 0.9 0.9 0.00 0.00 0.00 80 1007.2
20260506043314 63 341 2.6 5.2 0.00 0.00 0.00 80 1007.1
20260506042812 63 37 5.2 7.0 0.00 0.00 0.00 80 1007.3
20260506042311 64 57 4.3 7.0 0.00 0.00 0.00 80 1006.8
20260506041809 64 357 0.9 1.7 0.00 0.00 0.00 80 1007.1
20260506041305 64 66 1.7 4.3 0.00 0.00 0.00 79 1007.0
20260506040803 64 220 0.9 1.7 0.00 0.00 0.00 80 1006.9
20260506040300 64 95 2.6 4.3 0.00 0.00 0.00 79 1006.8
20260506035756 64 9 3.5 6.1 0.00 0.00 0.00 79 1006.6
20260506035253 64 222 0.9 1.7 0.00 0.00 0.00 80 1006.4
20260506034750 65 49 1.7 2.6 0.00 0.00 0.00 79 1006.5
20260506034248 65 67 1.7 2.6 0.00 0.00 0.00 79 1006.2
20260506033744 65 44 0.9 1.7 0.00 0.00 0.00 79 1006.3
20260506033241 66 194 1.7 1.7 0.00 0.00 0.00 78 1006.1
20260506032738 66 191 0.9 1.7 0.00 0.00 0.00 79 1006.2
20260506032235 66 28 2.6 4.3 0.00 0.00 0.00 79 1006.1
20260506031732 67 90 2.6 4.3 0.00 0.00 0.00 79 1005.9
20260506031230 67 52 1.7 2.6 0.00 0.00 0.00 79 1006.0
20260506030728 67 59 1.7 4.3 0.00 0.00 0.00 78 1005.8
20260506030225 68 223 2.6 4.3 0.00 0.00 0.00 78 1005.8
20260506025721 68 34 1.7 2.6 0.00 0.00 0.00 77 1005.9
20260506025218 69 24 1.7 2.6 0.00 0.00 0.00 77 1005.5
20260506024715 69 302 2.6 5.2 0.00 0.00 0.00 77 1005.5
20260506024211 69 80 0.0 0.9 0.00 0.00 0.00 77 1005.3
20260506023708 69 24 0.9 1.7 0.00 0.00 0.00 77 1005.5
20260506023205 69 43 0.9 1.7 0.00 0.00 0.00 76 1005.1
20260506022702 69 1 0.9 1.7 0.00 0.00 0.00 76 1004.9
20260506022159 69 323 0.9 0.9 0.00 0.00 0.00 76 1004.7
20260506021657 69 131 0.9 0.9 0.00 0.00 0.00 76 1004.5
20260506021154 69 237 1.7 1.7 0.00 0.00 0.00 75 1004.3
20260506020651 69 177 0.0 0.9 0.00 0.00 0.00 75 1004.4
20260506020149 70 292 1.7 1.7 0.00 0.00 0.00 75 1004.4
20260506015646 70 261 0.0 0.0 0.00 0.00 0.00 74 1004.3
20260506015144 70 237 0.0 0.9 0.00 0.00 0.00 74 1003.9
20260506014641 70 72 0.9 1.7 0.00 0.00 0.00 74 1003.8
20260506014136 70 331 1.7 1.7 0.00 0.00 0.00 74 1004.0
20260506013635 70 337 0.9 0.9 0.00 0.00 0.00 73 1003.8
20260506013131 71 155 1.7 1.7 0.00 0.00 0.00 73 1003.9
20260506012627 71 19 0.0 0.9 0.00 0.00 0.00 73 1003.5
20260506012124 71 247 0.9 0.9 0.00 0.00 0.00 73 1003.8
20260506011622 71 235 0.9 0.9 0.00 0.00 0.00 73 1004.0
20260506011118 71 38 0.9 1.7 0.00 0.00 0.00 73 1003.5
20260506010617 72 95 0.0 1.7 0.00 0.00 0.00 72 1003.8
20260506010113 72 31 0.9 1.7 0.00 0.00 0.00 72 1003.5
20260506005611 72 54 0.9 0.9 0.00 0.00 0.00 72 1003.4
20260506005107 73 220 0.9 0.9 0.00 0.00 0.00 72 1003.3
20260506004604 73 238 0.9 0.9 0.00 0.00 0.00 71 1003.2
20260506004100 73 302 1.7 2.6 0.00 0.00 0.00 69 1002.6
20260506003557 74 36 2.6 4.3 0.00 0.00 0.00 69 1002.7
20260506003053 74 23 0.9 1.7 0.00 0.00 0.00 70 1002.7
20260506002549 75 121 0.9 1.7 0.00 0.00 0.00 68 1002.7
20260506002045 75 144 0.9 0.9 0.00 0.00 0.00 68 1002.4
20260506001541 75 23 0.9 2.6 0.00 0.00 0.00 67 1002.4
20260506001039 76 343 2.6 4.3 0.00 0.00 0.00 67 1002.4
20260506000536 76 348 2.6 2.6 0.00 0.00 0.00 68 1002.6
20260506000033 77 40 1.7 1.7 0.00 0.00 0.00 67 1002.4
20260505235531 78 26 1.7 1.7 0.00 0.00 0.00 67 1002.3
20260505235028 78 127 0.9 1.7 0.00 0.00 0.00 66 1002.3
20260505234525 79 358 0.9 1.7 0.00 0.00 0.00 65 1002.4
20260505234022 80 72 0.9 1.7 0.00 0.00 0.00 65 1002.0
20260505233519 80 293 2.6 2.6 0.00 0.00 0.00 64 1001.8
20260505233017 81 325 1.7 2.6 0.00 0.00 0.00 64 1001.8
20260505232514 81 251 2.6 2.6 0.00 0.00 0.00 64 1001.9
20260505232012 82 267 0.9 0.9 0.00 0.00 0.00 63 1002.1
20260505231508 83 293 2.6 2.6 0.00 0.00 0.00 62 1001.7
20260505231008 83 283 0.9 1.7 0.00 0.00 0.00 61 1001.3
20260505230504 84 264 3.5 4.3 0.00 0.00 0.00 60 1001.6
20260505230000 84 227 2.6 4.3 0.00 0.00 0.00 58 1001.4
20260505225457 84 233 0.9 0.9 0.00 0.00 0.00 58 1001.4
20260505224953 85 277 5.2 6.1 0.00 0.00 0.00 58 1001.0
20260505224450 86 222 2.6 4.3 0.00 0.00 0.00 57 1001.0
20260505223948 86 259 3.5 4.3 0.00 0.00 0.00 55 1001.1
20260505223444 87 300 4.3 6.1 0.00 0.00 0.00 53 1001.2
20260505222941 87 295 2.6 4.3 0.00 0.00 0.00 52 1001.2
20260505222437 87 29 1.7 2.6 0.00 0.00 0.00 51 1000.7
20260505221933 88 228 1.7 2.6 0.00 0.00 0.00 50 1000.7
20260505221431 88 338 2.6 4.3 0.00 0.00 0.00 49 1000.8
20260505220928 88 288 2.6 4.3 0.00 0.00 0.00 49 1000.8
20260505220425 88 257 4.3 6.1 0.00 0.00 0.00 49 1000.7
20260505215922 89 280 1.7 1.7 0.00 0.00 0.00 49 1000.4
20260505215420 91 277 4.3 6.1 0.00 0.00 0.00 49 1000.5
20260505214918 93 262 0.9 1.7 0.00 0.00 0.00 50 1000.6
20260505214415 93 270 0.0 0.0 0.00 0.00 0.00 49 1000.6
20260505213912 93 295 0.0 0.9 0.00 0.00 0.00 49 1000.6
20260505213410 93 227 2.6 2.6 0.00 0.00 0.00 48 1000.4
20260505212906 93 236 3.5 7.0 0.00 0.00 0.00 49 1000.4
20260505212403 91 278 0.9 1.7 0.00 0.00 0.00 50 1000.3
20260505211859 92 297 2.6 4.3 0.00 0.00 0.00 50 1000.6
20260505211357 93 245 2.6 2.6 0.00 0.00 0.00 50 1000.6
20260505210853 92 264 0.9 1.7 0.00 0.00 0.00 49 1000.6
20260505210350 93 283 2.6 4.3 0.00 0.00 0.00 51 1000.7
20260505205847 92 202 2.6 6.1 0.00 0.00 0.00 51 1000.9
20260505205345 91 198 2.6 2.6 0.00 0.00 0.00 54 1000.8
20260505204842 92 222 1.7 1.7 0.00 0.00 0.00 56 1000.9
20260505204340 92 268 2.6 2.6 0.00 0.00 0.00 55 1000.8
20260505203837 92 303 0.9 0.9 0.00 0.00 0.00 56 1001.1
20260505203333 91 248 2.6 4.3 0.00 0.00 0.00 56 1001.0
20260505202830 92 218 3.5 5.2 0.00 0.00 0.00 55 1001.0
20260505202326 92 278 2.6 2.6 0.00 0.00 0.00 56 1001.3
20260505201822 91 248 2.6 2.6 0.00 0.00 0.00 57 1001.4
20260505201320 90 236 0.9 1.7 0.00 0.00 0.00 58 1001.3
20260505200818 91 85 2.6 2.6 0.00 0.00 0.00 57 1001.2
20260505200315 90 250 0.9 1.7 0.00 0.00 0.00 58 1001.6
20260505195810 90 211 3.5 5.2 0.00 0.00 0.00 58 1001.2
20260505195308 89 183 4.3 6.1 0.00 0.00 0.00 58 1001.4
20260505194804 89 251 0.9 1.7 0.00 0.00 0.00 59 1001.7
20260505194302 89 184 3.5 5.2 0.00 0.00 0.00 59 1001.7
20260505193757 89 255 2.6 2.6 0.00 0.00 0.00 59 1001.7
20260505193255 88 240 2.6 4.3 0.00 0.00 0.00 61 1001.6
20260505192753 88 219 0.9 1.7 0.00 0.00 0.00 62 1001.8
20260505192250 88 216 3.5 4.3 0.00 0.00 0.00 61 1001.4
20260505191748 88 212 2.6 4.3 0.00 0.00 0.00 61 1001.4
20260505191247 88 150 2.6 2.6 0.00 0.00 0.00 62 1001.4
20260505190742 87 184 1.7 2.6 0.00 0.00 0.00 62 1001.6
20260505190237 87 137 2.6 4.3 0.00 0.00 0.00 62 1001.3
20260505185734 87 232 1.7 1.7 0.00 0.00 0.00 65 1001.4
20260505185230 87 278 2.6 5.2 0.00 0.00 0.00 64 1001.7
20260505184726 86 243 2.6 4.3 0.00 0.00 0.00 64 1001.9
20260505184224 86 293 1.7 1.7 0.00 0.00 0.00 67 1001.7
20260505183720 86 223 2.6 4.3 0.00 0.00 0.00 65 1001.6
20260505183218 85 207 2.6 5.2 0.00 0.00 0.00 66 1002.1
20260505182714 85 216 0.9 0.9 0.00 0.00 0.00 67 1001.9
20260505182212 84 207 2.6 2.6 0.00 0.00 0.00 67 1001.7
20260505181708 85 237 0.9 1.7 0.00 0.00 0.00 67 1001.8
20260505181206 86 206 2.6 4.3 0.00 0.00 0.00 67 1001.8
20260505180702 85 243 1.7 1.7 0.00 0.00 0.00 66 1001.8
20260505180159 86 202 2.6 2.6 0.00 0.00 0.00 66 1001.7
20260505175654 85 205 1.7 1.7 0.00 0.00 0.00 66 1002.0
20260505175151 85 237 0.9 1.7 0.00 0.00 0.00 66 1001.9
20260505174648 84 202 2.6 4.3 0.00 0.00 0.00 67 1002.0
20260505174144 84 350 1.7 1.7 0.00 0.00 0.00 68 1001.8
20260505173641 84 197 1.7 2.6 0.00 0.00 0.00 69 1001.8
20260505173138 84 219 1.7 1.7 0.00 0.00 0.00 69 1001.7
20260505172635 83 193 2.6 5.2 0.00 0.00 0.00 70 1001.9
20260505172132 83 216 1.7 1.7 0.00 0.00 0.00 70 1001.9
20260505171626 83 234 2.6 4.3 0.00 0.00 0.00 70 1001.9
20260505171124 83 197 2.6 4.3 0.00 0.00 0.00 71 1002.0
20260505170621 82 222 1.7 1.7 0.00 0.00 0.00 70 1001.9
20260505170117 82 219 2.6 4.3 0.00 0.00 0.00 70 1001.9
20260505165612 82 232 1.7 1.7 0.00 0.00 0.00 71 1002.1
20260505165108 82 205 0.9 1.7 0.00 0.00 0.00 72 1002.1
20260505164604 82 193 2.6 2.6 0.00 0.00 0.00 71 1002.2
20260505164102 82 219 2.6 5.2 0.00 0.00 0.00 72 1002.1
20260505163600 81 239 2.6 4.3 0.00 0.00 0.00 73 1001.8
20260505163057 81 236 0.9 1.7 0.00 0.00 0.00 74 1001.8
20260505162549 81 179 2.6 4.3 0.00 0.00 0.00 74 1002.0
20260505162047 80 266 2.6 2.6 0.00 0.00 0.00 75 1001.7
20260505161544 80 216 2.6 2.6 0.00 0.00 0.00 75 1001.7
20260505161041 79 207 1.7 1.7 0.00 0.00 0.00 76 1001.8
20260505160539 80 213 1.7 1.7 0.00 0.00 0.00 75 1002.0
20260505153015 78 193 0.9 1.7 0.00 0.00 0.00 78 1001.8
20260505152512 78 246 1.7 1.7 0.00 0.00 0.00 78 1001.4
20260505152008 78 216 2.6 2.6 0.00 0.00 0.00 77 1001.9
20260505151503 79 216 2.6 4.3 0.00 0.00 0.00 77 1001.7
20260505151000 78 240 1.7 2.6 0.00 0.00 0.00 78 1001.8
20260505150457 77 234 0.9 0.9 0.00 0.00 0.00 80 1001.9
20260505140427 74 357 0.9 1.7 0.00 0.00 0.00 84 1001.7
20260505124841 72 249 1.7 1.7 0.00 0.00 0.00 87 1001.0
20260505124338 71 239 1.7 2.6 0.00 0.00 0.00 87 1001.1
20260505123834 71 262 2.6 4.3 0.00 0.00 0.00 88 1001.2
20260505123330 71 253 2.6 2.6 0.00 0.00 0.00 88 1000.9
20260505122826 71 266 0.9 1.7 0.00 0.00 0.00 88 1001.0
20260505122324 71 314 1.7 1.7 0.00 0.00 0.00 88 1000.9
20260505121820 71 349 0.9 1.7 0.00 0.00 0.00 88 1001.0
20260505121318 71 248 1.7 1.7 0.00 0.00 0.00 88 1000.7
20260505120814 71 204 0.0 0.9 0.00 0.00 0.00 88 1000.7
20260505120310 71 227 1.7 1.7 0.00 0.00 0.00 88 1000.7
20260505115808 71 86 1.7 2.6 0.00 0.00 0.00 88 1000.8
20260505115306 71 201 3.5 6.1 0.00 0.00 0.00 88 1000.7
20260505114804 71 228 1.7 1.7 0.00 0.00 0.00 88 1000.7
20260505114300 71 225 1.7 2.6 0.00 0.00 0.00 88 1000.7
20260505113756 71 221 1.7 1.7 0.00 0.00 0.00 88 1000.8
20260505113253 71 226 4.3 6.1 0.00 0.00 0.00 87 1000.6
20260505112748 71 132 1.7 1.7 0.00 0.00 0.00 87 1000.5
20260505112246 71 234 3.5 5.2 0.00 0.00 0.00 88 1000.5
20260505111747 71 253 1.7 1.7 0.00 0.00 0.00 87 1000.5
20260505111243 71 284 0.9 1.7 0.00 0.00 0.00 87 1000.5
20260505110739 71 227 1.7 2.6 0.00 0.00 0.00 87 1000.5
20260505110237 71 176 1.7 2.6 0.00 0.00 0.00 87 1000.5